Location: New Canada
(47.1017°N, 68.5042°W)
Time: 12:18:51
(UTC+00:00)

BlueWalker 3 - Pass Details

Date: 09 December 2022
Orbit: 499 x 517 km, 53.2° (Epoch: 01 February)

Event Time Altitude Azimuth Distance (km) Brightness Sun altitude
Rises 23:31:56 0° 293° (WNW) 2,624 6.5 -27.5°
Reaches altitude 10° 23:34:24 10° 280° (W) 1,730 5.6 -27.9°
Enters shadow 23:37:33 25° 227° (SW) 1,066 4.0 -28.4°
